Air Resources Laboratory banner image
Air Resources Laboratory web site National Oceanic and Atmospheric Administration (NOAA)

sc roundup


Office: CAE

ASUS42 KCAE 180410
RWRCAE
REGIONAL WEATHER ROUNDUP
NATIONAL WEATHER SERVICE COLUMBIA SC
1200 AM EDT SAT AUG 18 2018

NOTE: "FAIR" INDICATES FEW OR NO CLOUDS BELOW 12,000 FEET WITH NO
SIGNIFICANT WEATHER AND/OR OBSTRUCTIONS TO VISIBILITY.

NOT ALL STATIONS ARE QUALITY CONTROLLED BY THE NATIONAL
WEATHER SERVICE. USE DATA WITH CAUTION...ESPECIALLY
DEWPOINT OBSERVATIONS.

SCZ001>056-GAZ040-063>065-077-180500-
...UPSTATE SOUTH CAROLINA...

CITY           SKY/WX    TMP DP  RH WIND       PRES   REMARKS
ANDERSON       LGT RAIN  76  73  91 S5        30.13F
LIBERTY        MOCLDY    74  74 100 CALM      30.12F
SPARTANBURG    FAIR      77  70  78 SW6       30.12F
CLEMSON        MOCLDY    74  72  93 MISG      30.13F
GREENVILLE     FAIR      77  73  87 SW9       30.14F
GREENWOOD      FAIR      77  72  84 SW8       30.14F
GREER          FAIR      76  72  87 SW8       30.13F
ROCK HILL      FAIR      77  73  87 SW9       30.13R
CHESTER        FAIR      77  70  78 S5        30.14S
LAURENS        FAIR      77  72  83 SW8       30.13F


...CENTRAL SOUTH CAROLINA...

CITY           SKY/WX    TMP DP  RH WIND       PRES   REMARKS
COLUMBIA APT   FAIR      78  74  87 SW7       30.12F
COLUMBIA OWENS FAIR      77  73  87 S6        30.14S
MCENTIRE ANGB  MOCLDY    76  73  90 S6        30.14S
ORANGEBURG     FAIR      76  70  82 SW9       30.14F
SUMTER SHAW    FAIR      75  72  88 S6        30.13S
NEWBERRY       FAIR      77  72  83 S3        30.16F
AIKEN          FAIR      73  72  94 S6        30.17F
BARNWELL       FAIR      75  72  88 CALM      30.13F
MANNING        FAIR      70  70 100 SW3       30.14S
CAMDEN         FAIR      77  72  83 S7        30.14S
LANCASTER      FAIR      75  75 100 MISG      30.13R
WINNSBORO      FAIR      77  72  83 S7        30.13S


...EASTERN AND COASTAL SOUTH CAROLINA...

CITY           SKY/WX    TMP DP  RH WIND       PRES   REMARKS
MYRTLE BEACH   FAIR      80  76  87 SW8       30.14F
N MYRTLE BCH   FAIR      81  75  82 SW10      30.11F
CONWAY         FAIR      77  77 100 SW3       30.13S
MARION         FAIR      75  68  78 W3        30.13S
HARTSVILLE     FAIR      72  72 100 SW5       30.12F
FLORENCE       FAIR      75  72  90 SW9       30.13F
DARLINGTON     LGT RAIN  75  73  93 SW8       30.12F
CHARLESTON APT FAIR      78  70  76 SW3       30.15S
WALTERBORO     DRIZZLE   73  72  94 CALM      30.16S
BEAUFORT       FAIR      78  74  87 S6        30.15


...EASTERN GEORGIA...

CITY           SKY/WX    TMP DP  RH WIND       PRES   REMARKS
AUGUSTA BUSH F FAIR      77  73  87 S6        30.12F
AUGUSTA DANIEL FAIR      79  73  82 S9        30.14F
THOMSON        FAIR      77  73  87 W7        30.19F
CLAXTON        FAIR      75  74  96 CALM      30.16F
SYLVANIA         N/A     75  74  99 S3        30.16F
STATESBORO     FAIR      73  72  96 SE5       30.15S
SAVANNAH       MOCLDY    76  73  91 SW8       30.17R


...SOUTHERN NORTH CAROLINA...

CITY           SKY/WX    TMP DP  RH WIND       PRES   REMARKS
CHARLOTTE      MOCLDY    79  73  82 SW14      30.12R
MONROE         FAIR      77  70  79 SW12      30.11R
WADESBORO      FAIR      78  70  77 S5        30.10S
ROCKINGHAM     FAIR      74  72  93 S7        30.11S
RUTHERFORDTON  FAIR      70  70 100 S5        30.13S
ASHEVILLE      FAIR      71  69  93 S7        30.17S

$$




Office: CHS ASUS42 KCHS 180412 RWRCHS Regional Weather Roundup National Weather Service Charleston SC 1200 AM EDT SAT AUG 18 2018 NOTE: "fair" indicates few or no clouds below 12,000 feet with no significant weather and/or obstructions to visibility. Not all stations are quality controlled. Use data with caution, especially dewpoint observations. SCZ027-030-031-034>040-042>050-180500- ...Southeast South Carolina... CITY SKY/WX TMP DP RH WIND PRES REMARKS N Charleston FAIR 78 70 76 SW3 30.15S Waterfront Prk N/A 81 78 91 VRB2 29.99F Mount Pleasant NOT AVBL Johns Island FAIR 81 77 89 CALM 30.15S Pinopolis N/A 77 73 88 VRB3 30.07F Moncks Corner LGT RAIN 75 72 88 CALM 30.14F Summerville LGT RAIN 73 72 94 CALM 30.16S Beaufort MCAS FAIR 78 74 87 S6 30.15F Beaufort Arpt FAIR 81 72 74 W7 30.16R Hilton Head Is FAIR 81 72 74 VRB5 30.18R Walterboro DRIZZLE 73 72 94 CALM 30.16S Allendale FAIR 75 73 94 S5 30.13F ...Southern Midlands and Pee Dee... CITY SKY/WX TMP DP RH WIND PRES REMARKS Georgetown FAIR 77 77 100 SW6 30.15S Kingstree NOT AVBL Orangeburg FAIR 76 70 82 SW9 30.14F Barnwell FAIR 75 72 88 CALM 30.13F Aiken FAIR 73 72 94 S6 30.17F Manning FAIR 70 70 100 SW3 30.14S Columbia FAIR 78 74 87 SW7 30.12F Sumter FAIR 75 72 88 S6 30.13S Florence FAIR 75 72 90 SW9 30.13F Myrtle Beach FAIR 80 76 87 SW8 30.14F N Myrtle Beach FAIR 81 75 82 SW10 30.11F $$ GAZ063-065-086>088-099>101-113>116-118-119-134>141-150-180500- ...Southeast Georgia... CITY SKY/WX TMP DP RH WIND PRES REMARKS Savannah Arpt MOCLDY 76 73 91 SW8 30.17R Hunter AAF FAIR 77 70 79 S5 30.15R Fort Stewart FAIR 74 72 93 SW3 30.16R Statesboro FAIR 73 72 96 SE5 30.15S Sylvania N/A 75 74 99 S3 30.16F Claxton FAIR 75 74 96 CALM 30.16F ...CSRA, Central and far Southeast Georgia... CITY SKY/WX TMP DP RH WIND PRES REMARKS Thomson FAIR 77 73 87 W7 30.19F Augusta-Bush FAIR 77 73 87 S6 30.12F Augusta-Daniel FAIR 79 73 82 S9 30.14F Swainsboro FAIR 77 73 88 SW3 30.16F Vidalia FAIR 77 72 83 S5 30.16S Eastman FAIR 79 32 18 CALM 30.18F Hazlehurst FAIR 78 72 80 S5 30.16S Alma FAIR 75 71 87 S3 30.18R Waycross CLOUDY 75 72 90 CALM 30.20R Jesup NOT AVBL Baxley FAIR 72 72 100 SW3 30.17S Brunswick FAIR 77 72 83 CALM 30.19R Saint Simons FAIR 79 72 79 W6 30.18R $$ SCZ027-028-034-036>038-045-046-048>050-GAZ119-141-180500- ...Lake and Supplemental Coastal Observations... STATION/POSITION TIME TEMP WIND PRES WAVE SWELL AIR SEA DIR/SP/G HT/PER HT/PER/DIR (UTC) (F) (DEG/KT/KT) (MB) (FT/S) (FT/S/D) Winyah Bay 0245 81 240/ 8 1021.0 Lake Murray 0320 81 200/ 15/ 16 1019.3 ACE Basin NERRS 0245 76 CALM 1021.0 Fort Pulaski 0342 79 85 260/ 5/ 7 1021.9R Sapelo Island 0300 76 CALM 1021.0 $$ ANZ835-935-AMZ111-154-330-350-352-354-370-450-454-472-180500- ...C-MAN and Buoy Observations... STATION/POSITION TIME TEMP WIND PRES WAVE SWELL AIR SEA DIR/SP/G HT/PER HT/PER/DIR (UTC) (F) (DEG/KT/KT) (MB) (FT/S) (FT/S/D) Buoy 41004 0350 84 84 220/ 16/ 19 1021.0F 3/ 4 2/130/ 8 Buoy 41008 0350 81 82 230/ 6/ 8 1021.5R 3/ 4 2/110/ 7 Folly Beach CMAN 0400 83 220/ 12/ 15 1021.4F Capers Nearshore 0308 83 82 240/ 16/ 19 1019.8F Fripp Nearshore 0308 84 85 220/ 14/ 19 1020.5F STATION/POSITION TIME TEMP WIND PRES WAVE SWELL AIR SEA DIR/SP/G HT/PER HT/PER/DIR (UTC) (F) (DEG/KT/KT) (MB) (FT/S) (FT/S/D) 5E St. Marys GA 0400 81 N/A 2/ 8 Frying Pan Buoy 0350 84 84 210/ 19/ 23 1020.5F 4/ 5 2/140/ 8 Buoy 41025 0350 83 83 220/ 19/ 25 1019.4R 5/ 5 Cape Lookout NC 0300 220/ 12/ 17 1019.9R Buoy 41002 0350 83 210/ 10/ 10 1022.3R 2/ 8 2/110/ 8 Buoy 41010 0350 83 85 130/ 6/ 10 1022.5F 3/ 7 2/110/ 7 St Augustine FL 0400 79 80 220/ 5/ 5 1022.3R $$ ASUS42 KCHS 180427 RWRCHS Regional Weather Roundup National Weather Service Charleston SC 1200 AM EDT SAT AUG 18 2018 NOTE: "fair" indicates few or no clouds below 12,000 feet with no significant weather and/or obstructions to visibility. Not all stations are quality controlled. Use data with caution, especially dewpoint observations. SCZ027-030-031-034>040-042>050-180500- ...Southeast South Carolina... CITY SKY/WX TMP DP RH WIND PRES REMARKS N Charleston FAIR 78 70 76 SW3 30.15S Waterfront Prk N/A 81 78 91 VRB2 29.99F Mount Pleasant FAIR 81 77 89 CALM 30.14F Johns Island FAIR 81 77 89 CALM 30.15S Pinopolis N/A 77 73 88 VRB3 30.07F Moncks Corner FAIR 75 72 88 CALM 30.14F Summerville DRIZZLE 73 72 94 CALM 30.15F Beaufort MCAS FAIR 78 74 87 S6 30.15F Beaufort Arpt FAIR 81 72 74 SW8 30.15S Hilton Head Is FAIR 81 70 69 VRB5 30.17S Walterboro DRIZZLE 73 73 100 CALM 30.16S Allendale FAIR 75 73 94 CALM 30.13F ...Southern Midlands and Pee Dee... CITY SKY/WX TMP DP RH WIND PRES REMARKS Georgetown FAIR 77 77 100 SW9 30.15S Kingstree LGT RAIN 73 72 94 CALM 30.14S Orangeburg FAIR 76 70 82 SW9 30.14F Barnwell FAIR 73 72 94 CALM 30.13F Aiken FAIR 73 72 94 SW6 30.16F Manning LGT RAIN 70 70 100 W5 30.14F Columbia FAIR 78 74 87 SW7 30.12F Sumter FAIR 75 72 88 S6 30.13S Florence FAIR 75 72 90 SW9 30.13F Myrtle Beach FAIR 80 76 87 SW8 30.14F N Myrtle Beach FAIR 81 75 82 SW10 30.11F $$ GAZ063-065-086>088-099>101-113>116-118-119-134>141-150-180500- ...Southeast Georgia... CITY SKY/WX TMP DP RH WIND PRES REMARKS Savannah Arpt MOCLDY 76 73 91 SW8 30.17R Hunter AAF FAIR 77 70 79 S5 30.15R Fort Stewart FAIR 74 72 93 SW3 30.16R Statesboro LGT RAIN 73 72 95 S6 30.15S Sylvania N/A 75 74 99 CALM 30.17R Claxton FAIR 76 74 96 CALM 30.16F ...CSRA, Central and far Southeast Georgia... CITY SKY/WX TMP DP RH WIND PRES REMARKS Thomson MOCLDY 77 72 85 W6 30.19F Augusta-Bush FAIR 77 73 87 S6 30.12F Augusta-Daniel FAIR 79 73 82 S9 30.14F Swainsboro FAIR 77 73 88 CALM 30.15F Vidalia FAIR 77 72 83 S3 30.16S Eastman FAIR 80 32 17 CALM 30.17S Hazlehurst FAIR 78 72 80 S5 30.16S Alma FAIR 75 71 87 S3 30.18R Waycross MOCLDY 75 72 90 CALM 30.22R Jesup NOT AVBL Baxley FAIR 72 72 100 S3 30.17S Brunswick FAIR 75 70 83 CALM 30.19S Saint Simons FAIR 79 72 79 W6 30.18R $$ SCZ027-028-034-036>038-045-046-048>050-GAZ119-141-180500- ...Lake and Supplemental Coastal Observations... STATION/POSITION TIME TEMP WIND PRES WAVE SWELL AIR SEA DIR/SP/G HT/PER HT/PER/DIR (UTC) (F) (DEG/KT/KT) (MB) (FT/S) (FT/S/D) Winyah Bay 0345 81 230/ 8 1021.0S Lake Murray 0320 81 200/ 15/ 16 1019.3 ACE Basin NERRS 0345 77 CALM 1021.0S Fort Pulaski 0400 79 85 260/ 5/ 6 1022.0 Sapelo Island 0300 76 CALM 1021.0 $$ ANZ835-935-AMZ111-154-330-350-352-354-370-450-454-472-180500- ...C-MAN and Buoy Observations... STATION/POSITION TIME TEMP WIND PRES WAVE SWELL AIR SEA DIR/SP/G HT/PER HT/PER/DIR (UTC) (F) (DEG/KT/KT) (MB) (FT/S) (FT/S/D) Buoy 41004 0410 84 84 220/ 17/ 19 1021.1 Buoy 41008 0350 81 82 230/ 6/ 8 1021.5R 3/ 4 2/110/ 7 Folly Beach CMAN 0400 83 220/ 12/ 15 1021.4F Capers Nearshore 0408 83 82 240/ 14/ 17 1019.9R Fripp Nearshore 0408 83 84 240/ 12/ 17 1020.7R STATION/POSITION TIME TEMP WIND PRES WAVE SWELL AIR SEA DIR/SP/G HT/PER HT/PER/DIR (UTC) (F) (DEG/KT/KT) (MB) (FT/S) (FT/S/D) 5E St. Marys GA 0400 81 N/A 2/ 8 Frying Pan Buoy 0410 84 84 220/ 19/ 25 1020.5 Buoy 41025 0410 83 83 220/ 19/ 23 1019.5 Cape Lookout NC 0400 230/ 14/ 20 1020.1R Buoy 41002 0410 83 220/ 10/ 12 1022.3 Buoy 41010 0410 84 85 140/ 10/ 12 1022.4 St Augustine FL 0400 79 80 220/ 5/ 5 1022.3R $$